Location: Copper Breaks State Park
(34.1132°N, 99.7492°W)
Time: 18:39:11
(UTC-05:00)

Amateur Radio Satellites - All Passes

Search period start: 31 October 2014 18:09
Search period end: 01 November 2014 18:09
Location: Copper Breaks State Park, 34.1132°N, 99.7492°W

Satellite Date Start Highest point End Downlink Frequencies (MHz)
Time Altitude Azimuth
Uosat F 31 Oct 18:13:09 18:17:25 28° 263° (W) 18:21:42 435.120 FM
AO-7 31 Oct 18:44:16 18:50:09 21° 265° (W) 18:56:04 29.400 - 29.500 MHz
OPAL 31 Oct 18:45:42 18:50:33 54° 103° (ESE) 18:55:23 ?
Hamsat 31 Oct 19:16:02 19:19:55 37° 262° (W) 19:23:49 145.90 MHz
ISS 31 Oct 19:21:21 19:23:14 14° 233° (SW) 19:25:06 145.800 FM
JAS-2 31 Oct 19:22:04 19:27:31 34° 266° (W) 19:33:38 435.800 - 435.900 CW/SSB, 435.910 FM
KITSAT 1 31 Oct 19:31:12 19:36:56 21° 45° (NE) 19:42:39 435.175 FM
SO-50 31 Oct 19:45:35 19:47:49 13° 46° (NE) 19:50:03 436.795 FM
Oscar 10/S400 31 Oct 19:48:26 20:15:59 69° 193° (SSW) 06:08:56 145.825 - 145.975 CW/USB, Beacon 145.810 USB
SO-67 31 Oct 19:55:58 19:59:21 68° 77° (ENE) 20:02:47 435.3500 MHz FM
OPAL 31 Oct 20:26:15 20:28:57 15° 297° (WNW) 20:31:39 ?
STRAND 1 31 Oct 20:42:24 20:47:33 76° 285° (WNW) 20:52:39 ?
RS-15 31 Oct 20:46:09 20:55:58 39° 107° (ESE) 21:05:38 29.354 - 29.394 USB, Beacon 29.352 USB
HO-68 31 Oct 20:51:30 20:57:38 32° 65° (ENE) 21:03:47 435.675 MHz FM
SO-50 31 Oct 21:24:03 21:28:55 79° 242° (WSW) 21:33:48 436.795 FM
KITSAT 1 31 Oct 21:25:13 21:33:19 87° 245° (WSW) 21:41:23 435.175 FM
UKube-1 31 Oct 21:26:12 21:27:57 12° 65° (ENE) 21:29:41 145.840 MHz, 145.915 MHz
Oscar 11 31 Oct 21:58:46 22:02:22 27° 71° (ENE) 22:05:59 145.825 FM, Beacon 2401.500 USB
UOSAT-12 31 Oct 22:06:33 22:10:32 26° 53° (NE) 22:14:26 437.025 FM, 437.400 FM
FUNcube-1 31 Oct 22:17:03 22:20:09 19° 69° (ENE) 22:23:13 145.950 - 145.970 MHz USB
MaSat-1 31 Oct 22:20:09 22:23:57 42° 110° (ESE) 22:27:27 437.345 MHz
HO-68 31 Oct 22:38:22 22:45:04 43° 260° (W) 22:51:50 435.675 MHz FM
RS-15 31 Oct 22:57:13 23:07:52 53° 306° (NW) 23:18:29 29.354 - 29.394 USB, Beacon 29.352 USB
UKube-1 31 Oct 22:59:26 23:03:39 50° 260° (W) 23:07:54 145.840 MHz, 145.915 MHz
ZACube-1 31 Oct 23:08:52 23:13:24 75° 76° (ENE) 23:17:53 437.345 MHz
KITSAT 1 31 Oct 23:24:01 23:27:32 13° 260° (W) 23:31:03 435.175 FM
Oscar 11 31 Oct 23:35:13 23:38:29 21° 265° (W) 23:41:46 145.825 FM, Beacon 2401.500 USB
UOSAT-12 31 Oct 23:46:34 23:50:36 29° 248° (WSW) 23:54:34 437.025 FM, 437.400 FM
FUNcube-1 31 Oct 23:52:07 23:56:15 34° 262° (W) 00:00:19 145.950 - 145.970 MHz USB
MaSat-1 31 Oct 23:58:02 23:59:24 12° 301° (WNW) 00:00:43 437.345 MHz
RS-15 01 Nov 01:17:48 01:23:36 15° 335° (NNW) 01:29:28 29.354 - 29.394 USB, Beacon 29.352 USB
Oscar 16 01 Nov 02:23:25 02:27:38 26° 96° (E) 02:31:51 437.025 USB, Beacon 2401.1428
Sapphire 01 Nov 02:31:59 02:37:08 48° 111° (ESE) 02:42:19 437.095 MHz 1200 baud AX-25 AFSK
PCSat 01 Nov 02:53:17 02:58:41 84° 115° (ESE) 03:04:08 145.825 MHz
AO-Echo 01 Nov 02:53:44 02:58:13 27° 96° (E) 03:02:36 ?
Uribyol 2 01 Nov 02:57:38 03:01:39 22° 95° (E) 03:05:37 436.500 FM
ITAMSAT 1 01 Nov 03:05:33 03:09:49 25° 96° (E) 03:14:03 435.822 SSB
JAS-1B 01 Nov 03:08:13 03:15:40 71° 103° (ESE) 03:24:32 435.800 - 435.900 CW/SSB
Oscar 19 01 Nov 03:14:44 03:19:52 87° 103° (ESE) 03:25:00 437.125 CW, 437.150 USB
RS-15 01 Nov 03:39:54 03:43:17 12° 14° (NNE) 03:46:41 29.354 - 29.394 USB, Beacon 29.352 USB
PANSAT 01 Nov 03:42:25 03:44:51 16° 161° (SSE) 03:47:17 not established
AO-27 01 Nov 03:52:36 03:57:50 80° 103° (ESE) 04:03:02 436.795 MHz FM
Oscar 16 01 Nov 04:02:29 04:06:55 31° 290° (WNW) 04:11:21 437.025 USB, Beacon 2401.1428
Gurwin Techsat 1B 01 Nov 04:11:36 04:16:53 62° 101° (E) 04:22:07 435.225 FM
Sapphire 01 Nov 04:16:45 04:20:47 21° 307° (NW) 04:24:50 437.095 MHz 1200 baud AX-25 AFSK
TMSAT-1 01 Nov 04:17:37 04:22:47 51° 100° (E) 04:27:55 436.925 FM
AO-Echo 01 Nov 04:32:15 04:36:53 31° 290° (WNW) 04:41:26 ?
Uribyol 2 01 Nov 04:36:26 04:41:09 36° 289° (WNW) 04:45:49 436.500 FM
PCSat 01 Nov 04:40:18 04:42:46 13° 312° (NW) 04:45:14 145.825 MHz
ITAMSAT 1 01 Nov 04:44:41 04:49:16 32° 290° (WNW) 04:53:49 435.822 SSB
Uosat F 01 Nov 04:48:24 04:49:37 11° 92° (E) 04:50:49 435.120 FM
AO-7 01 Nov 04:55:18 05:02:14 29° 97° (E) 05:09:08 29.400 - 29.500 MHz
JAS-1B 01 Nov 05:00:30 05:05:46 22° 295° (WNW) 05:11:39 435.800 - 435.900 CW/SSB
PANSAT 01 Nov 05:21:05 05:24:32 31° 173° (S) 05:27:58 not established
AO-27 01 Nov 05:35:21 05:36:36 11° 298° (WNW) 05:37:51 436.795 MHz FM
RS-15 01 Nov 05:50:39 06:00:37 35° 47° (NE) 06:10:53 29.354 - 29.394 USB, Beacon 29.352 USB
Saudisat 1A 01 Nov 05:53:19 05:57:29 45° 115° (ESE) 06:01:41 436.775 MHz
Gurwin Techsat 1B 01 Nov 05:53:32 05:56:15 14° 296° (WNW) 05:58:59 435.225 FM
OPAL 01 Nov 05:56:52 06:01:56 65° 72° (ENE) 06:06:57 ?
TMSAT-1 01 Nov 05:58:55 06:02:14 17° 295° (WNW) 06:05:33 436.925 FM
STRAND 1 01 Nov 06:19:50 06:21:07 11° 62° (ENE) 06:22:24 ?
Uosat F 01 Nov 06:23:46 06:28:47 67° 286° (WNW) 06:33:45 435.120 FM
JAS-2 01 Nov 06:34:18 06:41:52 49° 98° (E) 06:49:00 435.800 - 435.900 CW/SSB, 435.910 FM
AO-7 01 Nov 06:47:12 06:55:14 55° 293° (WNW) 07:03:17 29.400 - 29.500 MHz
PANSAT 01 Nov 07:00:52 07:04:20 33° 186° (S) 07:07:48 not established
Hamsat 01 Nov 07:04:55 07:09:01 46° 99° (E) 07:13:06 145.90 MHz
Saudisat 1A 01 Nov 07:34:27 07:37:15 17° 310° (NW) 07:40:05 436.775 MHz
OPAL 01 Nov 07:39:22 07:41:08 12° 266° (W) 07:42:53 ?
STRAND 1 01 Nov 07:54:27 07:59:35 78° 257° (WSW) 08:04:45 ?
RS-15 01 Nov 08:02:32 08:13:38 66° 247° (WSW) 08:25:14 29.354 - 29.394 USB, Beacon 29.352 USB
MaSat-1 01 Nov 08:08:32 08:10:19 18° 62° (ENE) 08:12:03 437.345 MHz
JAS-2 01 Nov 08:19:45 08:26:27 32° 294° (WNW) 08:32:57 435.800 - 435.900 CW/SSB, 435.910 FM
PANSAT 01 Nov 08:41:24 08:44:02 18° 198° (SSW) 08:46:39 not established
Hamsat 01 Nov 08:42:50 08:44:31 12° 293° (WNW) 08:46:12 145.90 MHz
SO-67 01 Nov 08:55:30 08:58:53 55° 284° (WNW) 09:02:14 435.3500 MHz FM
KITSAT 1 01 Nov 09:56:55 10:02:13 19° 102° (ESE) 10:07:30 435.175 FM
HO-68 01 Nov 10:09:46 10:16:38 46° 100° (E) 10:23:27 435.675 MHz FM
ISS 01 Nov 10:22:48 10:26:06 71° 318° (NW) 10:29:25 145.800 FM
UKube-1 01 Nov 10:51:23 10:55:23 35° 99° (E) 10:59:21 145.840 MHz, 145.915 MHz
ZACube-1 01 Nov 11:03:04 11:05:53 18° 94° (E) 11:08:42 437.345 MHz
Sapphire 01 Nov 11:24:32 11:28:21 19° 52° (NE) 11:32:08 437.095 MHz 1200 baud AX-25 AFSK
Oscar 11 01 Nov 11:25:14 11:29:33 88° 283° (WNW) 11:33:52 145.825 FM, Beacon 2401.500 USB
SO-50 01 Nov 11:35:16 11:39:43 84° 118° (ESE) 11:44:19 436.795 FM
FUNcube-1 01 Nov 11:44:36 11:48:44 59° 100° (E) 11:52:48 145.950 - 145.970 MHz USB
PCSat 01 Nov 11:45:25 11:50:11 31° 57° (ENE) 11:54:55 145.825 MHz
KITSAT 1 01 Nov 11:48:40 11:56:43 75° 298° (WNW) 12:04:49 435.175 FM
HO-68 01 Nov 11:58:00 12:04:00 30° 296° (WNW) 12:09:59 435.675 MHz FM
ISS 01 Nov 12:02:41 12:03:18 10° 334° (NNW) 12:03:55 145.800 FM
UOSAT-12 01 Nov 12:15:08 12:18:11 18° 109° (ESE) 12:21:17 437.025 FM, 437.400 FM
UKube-1 01 Nov 12:28:26 12:31:15 17° 292° (WNW) 12:34:03 145.840 MHz, 145.915 MHz
ZACube-1 01 Nov 12:38:42 12:42:17 28° 288° (WNW) 12:45:51 437.345 MHz
Sapphire 01 Nov 13:06:47 13:12:05 54° 248° (WSW) 13:17:20 437.095 MHz 1200 baud AX-25 AFSK
SO-50 01 Nov 13:19:46 13:20:54 11° 316° (NW) 13:22:03 436.795 FM
PCSat 01 Nov 13:28:48 13:33:30 31° 252° (WSW) 13:38:10 145.825 MHz
Oscar 16 01 Nov 13:36:56 13:41:10 27° 69° (ENE) 13:45:24 437.025 USB, Beacon 2401.1428
KITSAT 1 01 Nov 13:48:48 13:53:31 16° 319° (NW) 13:58:16 435.175 FM
JAS-1B 01 Nov 13:52:06 13:57:17 35° 69° (ENE) 14:02:24 435.800 - 435.900 CW/SSB
UOSAT-12 01 Nov 13:53:36 13:57:58 41° 304° (WNW) 14:02:25 437.025 FM, 437.400 FM
AO-Echo 01 Nov 14:03:20 14:07:13 23° 68° (ENE) 14:11:13 ?
Uribyol 2 01 Nov 14:12:01 14:16:08 24° 68° (ENE) 14:20:16 436.500 FM
ITAMSAT 1 01 Nov 14:20:02 14:24:21 27° 69° (ENE) 14:28:42 435.822 SSB
Saudisat 1A 01 Nov 14:24:35 14:27:05 15° 49° (NE) 14:29:35 436.775 MHz
Oscar 19 01 Nov 14:27:48 14:32:56 86° 77° (ENE) 14:38:05 437.125 CW, 437.150 USB
AO-27 01 Nov 15:06:55 15:12:07 82° 76° (ENE) 15:17:22 436.795 MHz FM
Oscar 16 01 Nov 15:15:52 15:20:21 30° 263° (W) 15:24:52 437.025 USB, Beacon 2401.1428
Gurwin Techsat 1B 01 Nov 15:28:55 15:34:10 68° 75° (ENE) 15:39:27 435.225 FM
TMSAT-1 01 Nov 15:34:36 15:39:46 56° 73° (ENE) 15:44:57 436.925 FM
AO-Echo 01 Nov 15:41:17 15:45:44 33° 263° (W) 15:50:22 ?
JAS-1B 01 Nov 15:43:33 15:48:04 23° 264° (W) 15:52:29 435.800 - 435.900 CW/SSB
Uribyol 2 01 Nov 15:50:40 15:55:23 34° 262° (W) 16:00:08 436.500 FM
AO-7 01 Nov 15:50:45 15:57:32 29° 61° (ENE) 16:04:18 29.400 - 29.500 MHz
Uosat F 01 Nov 15:58:32 16:00:02 11° 63° (ENE) 16:01:33 435.120 FM
ITAMSAT 1 01 Nov 15:59:08 16:03:41 30° 263° (W) 16:08:16 435.822 SSB
Saudisat 1A 01 Nov 16:02:38 16:06:57 54° 245° (WSW) 16:11:15 436.775 MHz
JAS-2 01 Nov 16:45:43 16:48:33 13° 57° (ENE) 16:51:30 435.800 - 435.900 CW/SSB, 435.910 FM
ISS 01 Nov 16:54:46 16:57:33 24° 35° (NE) 17:00:20 145.800 FM
Gurwin Techsat 1B 01 Nov 17:12:42 17:14:32 12° 269° (W) 17:16:22 435.225 FM
TMSAT-1 01 Nov 17:17:06 17:19:58 15° 267° (W) 17:22:51 436.925 FM
Uosat F 01 Nov 17:33:08 17:38:09 73° 258° (WSW) 17:43:12 435.120 FM
AO-7 01 Nov 17:41:45 17:49:48 56° 257° (WSW) 17:57:55 29.400 - 29.500 MHz
Hamsat 01 Nov 17:55:20 17:58:27 21° 70° (ENE) 18:01:35 145.90 MHz
